Theta_e
334 339 348 348 347 348 348 347 346 346 344 342 341 341 342 343 342 344 346 345 343 343 343 341 338 339 338 337 336 338 337 336 336 335 335 336 335 335 334 334 334 331 337
334 341 346 348 348 349 349 349 347 346 343 341 340 339 339 339 340 340 343 344 341 340 340 338 338 338 336 335 335 336 336 335 335 337 335 336 335 334 334 334 336 332 335
334 343 344 347 348 348 349 348 347 346 344 340 339 338 338 338 338 339 341 341 337 339 339 336 338 338 336 333 333 335 335 334 335 336 334 325 327 334 335 335 333 334 334
339 343 344 345 347 348 348 346 346 346 344 339 337 337 337 337 338 338 340 339 337 338 339 341 340 338 335 333 331 332 333 333 336 334 325 325 329 334 333 333 333 333 333
339 343 344 344 347 348 347 346 346 346 344 341 336 335 337 335 338 335 338 337 337 336 337 338 338 336 335 333 331 331 332 333 333 328 324 323 325 332 333 332 331 331 331
337 342 343 346 348 347 346 346 345 345 344 340 336 336 335 336 334 335 336 340 337 334 333 333 334 334 332 331 330 329 330 331 325 322 323 328 325 332 333 332 331 331 331
337 341 343 345 346 347 346 346 345 344 342 340 337 336 336 336 336 334 334 335 335 333 332 333 333 331 330 329 328 328 328 328 319 319 323 325 325 331 331 331 331 330 330
338 341 342 338 341 344 345 344 344 343 341 341 339 335 335 336 337 336 335 333 333 332 332 333 332 330 329 327 326 326 326 326 318 317 322 325 333 330 329 329 329 329 329
339 340 340 340 339 337 339 340 341 341 340 338 338 336 336 334 335 337 336 334 332 332 332 331 330 329 329 327 326 325 325 324 316 316 321 320 331 330 330 329 328 328 328
338 339 338 338 338 338 337 333 335 336 333 335 335 332 330 329 330 330 331 334 334 332 331 330 329 329 329 328 328 326 324 323 316 316 316 318 329 328 328 330 330 329 330
336 336 337 336 337 337 336 332 330 331 329 330 330 327 324 324 324 326 326 331 334 335 333 331 330 331 330 329 328 326 324 318 317 315 316 324 326 325 327 329 329 330 330
329 332 334 335 335 336 338 332 331 331 328 328 328 325 325 325 324 324 322 326 329 329 331 332 333 331 326 322 320 324 320 318 316 316 316 326 328 327 327 329 330 330 331
328 330 333 334 333 332 332 330 329 329 327 327 327 325 326 325 323 322 321 322 321 321 322 325 327 325 323 320 320 319 319 317 316 317 319 326 329 328 329 330 331 331 331
328 329 332 332 331 329 329 328 327 329 327 325 325 326 324 322 320 321 320 320 320 321 320 320 321 322 321 322 320 320 320 319 318 318 318 321 327 329 330 331 332 332 333
327 328 332 333 331 332 329 328 328 328 328 326 326 326 324 322 321 321 320 321 320 321 320 319 320 321 320 320 321 320 320 319 319 318 318 317 323 329 332 332 332 333 334
328 328 330 333 332 331 331 330 329 329 329 329 328 328 326 325 323 322 321 320 320 320 321 320 320 320 320 320 321 321 320 320 320 320 320 320 321 326 331 332 333 332 333
328 330 331 332 334 332 330 330 330 331 330 328 328 328 327 327 325 324 322 321 321 322 322 321 320 321 320 322 321 322 323 322 322 322 322 322 322 321 325 331 332 333 333
329 329 331 332 332 333 332 330 330 330 330 330 329 329 328 328 328 325 324 323 324 323 322 321 320 320 320 320 320 322 323 325 323 323 323 323 323 323 323 326 330 332 331
331 330 330 330 330 333 333 333 332 332 329 329 328 328 329 330 329 326 325 325 325 323 322 322 321 320 319 321 322 321 321 321 322 324 323 323 323 323 322 323 322 322 326
331 332 331 331 331 331 334 333 332 332 332 332 330 329 329 330 329 328 326 325 325 324 324 325 323 322 320 319 320 321 320 321 321 321 322 324 323 323 322 321 316 317 321
330 331 331 331 331 332 330 331 330 329 331 331 332 331 330 330 330 328 327 326 326 325 326 326 324 321 317 318 317 317 318 321 320 321 321 322 322 322 322 320 317 315 314
328 330 329 331 331 331 331 332 330 329 331 332 332 331 331 330 330 329 328 327 327 327 327 326 324 319 318 318 315 313 309 311 314 319 319 320 320 321 320 320 316 310 308
325 327 329 331 331 332 332 333 330 330 329 331 331 330 331 331 330 330 329 329 328 328 327 326 326 323 319 318 319 314 307 305 309 315 316 318 318 318 315 315 312 307 304
323 326 328 330 332 332 334 332 331 330 329 330 328 330 330 331 331 331 330 330 329 329 326 327 327 326 324 319 318 322 317 312 308 306 314 315 314 312 309 304 300 300 301
303 306 311 321 326 328 332 332 331 330 330 329 330 329 331 332 332 332 332 330 330 329 327 326 325 325 324 323 321 316 318 318 316 310 306 313 312 306 303 300 298 296 296
300 300 300 303 305 308 308 314 328 329 328 326 327 327 328 331 332 332 332 332 331 330 328 326 325 325 325 324 324 321 318 314 315 311 309 309 312 304 301 299 296 295 295
Wind_Speed
7 11 16 17 17 17 18 17 17 16 16 15 14 15 15 15 15 14 15 16 16 17 16 17 16 17 17 16 16 16 17 17 17 17 16 16 17 17 17 18 13 9 17
13 12 15 17 16 17 17 16 17 16 16 15 14 13 13 12 13 14 15 15 15 14 14 15 16 17 16 15 14 14 13 10 8 10 15 13 15 15 16 16 14 12 17
14 12 13 15 16 15 16 16 16 15 15 15 14 14 14 13 13 14 13 13 14 14 15 15 15 16 15 13 11 11 10 9 6 6 12 5 6 14 14 15 14 14 14
15 12 11 13 16 15 15 16 15 15 15 14 13 13 13 14 13 14 14 14 13 14 14 15 17 16 13 11 10 11 12 13 12 10 4 5 7 13 13 13 14 13 13
14 12 11 13 15 15 15 15 15 15 17 14 12 12 12 13 12 14 13 13 13 14 13 13 14 13 12 10 9 10 13 15 10 9 6 6 4 9 12 12 11 11 11
13 14 13 14 15 14 14 14 14 12 16 15 12 12 12 12 13 13 12 12 14 11 11 11 11 11 10 9 8 9 10 12 8 6 6 7 4 9 10 10 10 10 9
12 13 13 15 16 15 14 15 13 13 14 15 12 12 14 10 12 12 11 11 11 11 10 9 9 9 8 7 7 8 9 11 6 6 5 5 3 7 8 8 8 8 8
14 13 12 13 14 15 16 16 16 14 15 12 14 11 11 13 12 11 10 10 10 9 9 7 7 7 6 5 4 5 6 7 5 3 4 4 3 4 5 5 5 5 5
13 11 10 10 11 12 12 12 13 12 13 13 13 11 11 8 12 14 11 9 10 8 7 6 6 5 4 3 1 2 5 6 3 3 5 3 4 2 2 3 2 2 3
12 11 9 7 7 6 7 10 10 10 12 9 11 12 11 10 9 9 11 11 9 9 8 7 6 5 3 3 3 4 5 7 3 4 3 3 6 3 2 2 3 3 2
10 11 9 7 6 6 5 6 7 8 11 9 9 9 8 5 6 6 5 8 9 11 10 7 5 5 5 6 7 8 7 3 4 3 2 7 6 5 5 4 4 5 5
12 11 11 10 8 7 7 6 5 5 4 5 6 6 5 6 5 6 6 8 8 8 8 7 8 7 6 3 3 7 3 4 4 3 3 9 7 6 7 7 7 6 7
12 9 11 11 10 9 6 4 3 2 3 3 6 6 5 4 4 3 3 3 3 5 3 4 4 4 5 4 4 4 4 4 3 3 3 10 9 8 8 9 9 9 9
13 12 13 12 10 9 6 6 5 5 4 3 5 7 5 3 4 4 4 5 4 3 5 5 3 5 5 6 6 4 4 3 3 3 3 8 9 9 10 10 11 11 11
11 10 15 13 11 10 9 6 6 5 5 5 6 7 5 4 5 5 5 4 4 4 4 5 5 5 5 6 4 5 6 6 6 3 3 8 10 11 12 12 12 12 12
13 11 10 13 11 11 9 9 7 6 6 6 6 7 7 5 5 4 4 4 5 5 5 5 5 5 5 5 5 6 6 5 5 5 4 4 10 11 13 14 13 13 13
10 11 12 10 12 12 9 10 7 7 7 7 5 7 8 6 6 6 5 4 5 5 6 5 4 3 3 3 5 5 5 6 5 6 5 4 5 10 12 15 14 13 13
9 11 11 8 7 12 10 5 5 5 6 6 5 6 8 7 7 6 5 5 5 4 4 3 4 4 4 4 4 5 4 4 6 6 5 5 5 5 7 12 12 11 10
14 10 11 10 9 7 10 9 7 7 5 5 5 5 9 10 9 6 4 4 5 4 4 4 4 3 4 4 4 4 5 4 5 5 6 6 7 6 4 6 6 1 4
13 12 10 11 11 9 4 7 6 6 6 6 6 7 9 8 9 7 5 5 5 4 5 3 5 4 3 4 3 4 5 5 5 6 7 5 5 6 5 5 4 3 5
13 13 11 14 12 10 5 5 7 8 7 6 6 8 9 8 10 9 7 6 6 7 7 6 3 5 4 2 2 3 5 8 8 7 5 4 5 5 5 6 4 3 4
14 14 12 14 12 9 9 6 4 5 6 6 4 6 8 10 11 10 9 9 9 7 7 7 6 3 3 4 4 2 4 4 4 5 3 4 6 4 5 5 6 5 4
11 13 13 14 14 12 11 7 2 2 3 7 6 4 7 9 10 12 12 11 10 9 8 9 9 10 7 4 9 4 1 4 2 2 2 2 2 3 4 6 7 7 6
4 9 10 12 13 13 14 12 11 8 10 8 4 4 5 8 11 13 12 12 12 9 9 9 8 8 9 9 3 9 6 3 3 3 2 3 4 4 5 4 4 5 4
9 7 7 3 4 3 12 12 9 11 8 5 6 7 10 8 11 12 13 12 13 10 11 11 10 11 9 9 8 3 7 6 5 4 4 2 1 3 3 4 4 3 3
7 8 7 8 7 7 6 5 5 11 9 6 6 7 6 7 7 10 12 12 13 12 13 10 11 11 10 10 8 8 6 4 6 4 5 4 5 3 1 2 4 4 4
Wind_Direction
151 150 146 144 140 138 134 131 126 117 110 105 101 97 98 97 93 92 88 85 80 76 81 85 83 79 76 77 82 82 79 79 80 78 67 66 76 73 72 63 72 55 59
139 149 146 143 146 141 136 133 127 122 117 111 107 106 103 103 102 100 97 91 86 87 94 91 87 82 76 76 82 82 78 78 73 56 76 65 69 70 67 70 67 67 58
138 145 146 146 143 139 135 133 133 133 120 114 109 109 107 110 108 109 110 91 94 91 97 96 95 83 75 70 64 63 56 45 43 104 90 77 72 71 73 66 74 67 66
138 141 141 140 143 141 138 141 142 131 122 114 117 117 119 119 116 117 104 106 103 96 85 92 89 85 79 69 54 41 29 25 38 106 71 65 60 72 75 73 69 69 64
136 135 136 137 142 143 141 144 141 139 124 121 119 118 114 118 120 119 111 112 106 103 95 79 78 83 82 69 49 32 22 16 41 83 83 74 56 76 75 74 69 66 65
142 136 135 134 144 144 146 147 146 141 126 123 126 123 125 123 127 124 124 113 110 103 103 99 91 88 82 71 49 34 25 23 50 83 82 67 59 78 76 74 71 69 68
135 138 139 138 143 142 142 140 139 132 120 127 138 136 129 122 134 133 133 128 124 119 116 106 102 95 88 75 49 22 16 14 12 98 95 91 55 80 78 76 74 71 69
138 144 146 141 142 142 145 144 146 141 134 138 139 147 142 143 139 132 132 140 134 131 117 121 113 107 101 88 61 20 360 15 6 100 124 119 89 100 90 87 83 78 73
135 140 145 150 149 146 146 149 154 156 148 150 149 156 140 163 151 149 141 144 139 135 141 141 138 135 138 135 116 342 329 333 350 293 146 155 161 144 146 141 125 114 100
137 141 145 141 145 143 152 155 157 164 138 153 154 146 146 161 147 162 154 156 158 159 164 166 167 172 190 216 247 266 284 308 306 295 160 191 170 182 218 234 204 208 210
144 146 147 144 149 145 145 160 154 173 150 156 155 151 141 157 164 159 177 182 165 171 171 176 196 208 228 244 256 264 272 281 284 253 178 193 189 206 234 245 246 249 243
150 155 154 155 160 157 163 148 153 145 143 145 147 157 160 174 179 178 183 182 182 182 183 187 199 219 241 258 275 268 272 272 266 272 215 200 206 218 236 251 256 259 261
154 160 163 165 164 166 157 155 155 153 154 158 161 168 182 181 194 175 172 175 175 199 203 216 218 225 237 232 268 233 254 258 260 286 253 211 218 227 242 254 258 260 262
161 163 166 171 168 165 149 165 166 167 176 182 183 183 187 182 181 173 174 187 189 192 204 215 220 237 238 249 227 225 246 267 271 267 275 230 227 241 249 255 258 262 263
170 164 167 170 167 162 159 164 168 179 182 188 184 192 184 184 188 173 185 191 201 195 205 217 220 226 232 232 243 237 250 253 257 259 254 234 234 239 254 260 260 260 262
173 172 162 170 163 159 167 172 177 177 186 188 187 192 196 186 185 194 199 200 200 193 205 211 205 212 218 218 238 240 244 251 252 254 250 249 232 237 247 257 261 262 263
179 168 171 163 167 172 170 178 179 188 187 190 185 190 192 181 195 194 198 208 205 199 201 211 227 220 229 233 236 236 237 241 244 249 247 245 246 238 241 246 251 255 259
171 171 167 164 166 175 178 177 190 176 181 192 182 188 194 193 189 200 200 206 209 205 200 197 206 226 231 228 238 246 242 242 246 245 243 240 235 241 236 237 239 245 256
183 169 175 163 179 187 176 188 198 184 179 187 187 185 195 202 199 184 201 211 199 200 204 202 217 203 225 240 242 262 269 266 259 258 249 247 242 231 213 221 216 231 256
184 187 182 178 186 184 173 190 204 208 204 189 194 200 198 198 195 192 194 203 196 199 211 199 207 212 218 234 251 265 264 259 258 253 255 255 249 238 199 156 115 113 162
180 188 189 184 186 182 186 192 194 203 209 211 205 198 201 199 199 197 202 195 194 205 215 214 200 215 237 222 346 296 269 253 253 248 235 243 258 209 172 129 128 103 59
179 186 176 186 184 186 202 205 192 185 202 212 196 211 204 200 201 203 203 207 204 211 200 208 190 201 229 182 197 218 294 317 281 251 231 231 219 180 130 127 118 105 83
168 179 180 178 182 191 195 206 182 185 216 212 215 213 209 202 201 204 203 207 208 210 208 209 200 203 225 211 205 192 236 237 310 323 244 205 147 105 93 114 125 123 111
178 171 176 176 184 196 189 192 195 212 219 221 193 201 219 210 205 204 206 206 208 213 214 206 203 205 206 225 206 224 244 171 197 311 356 54 56 74 101 77 84 99 109
38 41 33 46 147 183 193 191 194 207 218 197 205 211 227 226 220 213 209 202 210 212 220 212 208 205 202 218 215 181 223 228 216 198 244 180 80 77 59 119 119 109 100
40 34 37 37 29 14 22 343 243 207 200 187 200 211 219 223 221 221 217 214 213 213 218 214 215 209 212 215 218 218 210 184 209 183 214 210 196 173 156 150 157 152 142